Simultaneous Nadir Overpasses (SNOs) Predictions

Prediction of SNOs between AQUA and GOES-15 Satellite Orbit:

Table of predicted SNOs for the next 14.0 days since TLE Epoch: 5/1/2021
Index Date Time (AQUA) AQUA Lat,Lon GOES-15 Lat,Lon Distance(km) Time Diff (sec)
1 05/02/2021 21:57:53 0.37,-125.66 -0.04,-127.69 230.67 80
2 05/03/2021 10:19:08 0.72,-130.82 0.05,-127.77 347.34 80
3 05/05/2021 10:06:56 0.08,-127.86 0.05,-127.85 3.88 80
4 05/07/2021 09:54:45 -0.62,-124.92 0.04,-127.93 342.97 80
5 05/07/2021 22:16:09 -0.50,-130.10 -0.05,-127.89 251.19 80
6 05/09/2021 22:03:57 0.15,-127.15 -0.05,-127.97 93.86 80
7 05/10/2021 10:25:11 0.95,-132.30 0.05,-128.05 483.01 80
8 05/11/2021 21:51:45 0.81,-124.19 -0.04,-128.04 438.34 80
9 05/12/2021 10:12:59 0.29,-129.35 0.04,-128.12 138.94 80
10 05/14/2021 10:00:48 -0.36,-126.39 0.04,-128.19 204.45 80
11 05/14/2021 22:22:10 -0.80,-131.57 -0.04,-128.13 391.48 80
